Theta_e
291 293 294 293 293 292 292 293 292 291 294 295 295 294 294 293 293 293 293 294 298 299 300 302 304 308 308 314 324 329 330 331 331 329 328 327 326 325 326 327 329 330 327 321
290 292 293 293 295 295 295 294 292 293 294 295 294 293 292 292 293 293 293 295 297 296 297 299 301 306 309 306 306 321 327 329 329 330 329 328 327 326 326 325 327 330 328 321
290 292 293 295 295 296 295 294 294 294 294 292 292 291 291 293 293 293 294 295 296 295 295 296 298 301 302 303 301 309 318 322 325 327 329 329 327 326 324 324 325 326 325 322
291 292 293 295 296 296 296 295 294 293 295 293 292 293 293 293 292 293 294 293 294 294 294 294 294 297 298 298 298 299 307 312 317 318 327 328 327 326 326 325 324 324 323 323
292 293 293 295 296 296 295 294 293 294 294 294 292 293 293 291 293 293 294 294 293 294 293 293 293 293 294 296 297 297 298 301 308 311 316 320 328 328 328 327 326 325 325 325
292 291 294 295 295 296 293 293 291 290 291 290 293 292 292 292 293 292 293 293 294 292 292 292 293 293 293 293 295 295 296 296 301 304 307 312 317 328 329 328 327 326 325 325
289 292 291 292 292 292 293 290 292 294 292 293 291 293 293 293 293 292 292 292 293 291 291 291 292 292 292 292 292 295 295 294 295 300 304 307 312 318 328 328 327 327 326 325
288 293 292 292 292 291 294 291 291 290 293 292 293 294 295 293 293 292 290 291 292 291 290 290 291 291 291 292 291 292 293 294 295 296 301 304 307 311 319 329 328 327 326 326
285 291 290 292 291 291 292 290 291 289 289 291 292 291 291 293 292 291 290 290 290 290 291 290 291 290 291 291 291 291 291 292 295 297 300 301 305 309 314 323 329 327 326 326
286 288 291 292 291 291 292 291 290 287 287 290 292 292 293 293 293 291 290 290 290 290 291 291 291 291 290 290 290 290 291 292 293 296 300 300 303 307 312 316 322 327 328 326
281 286 292 289 288 292 292 291 287 286 290 292 294 293 290 292 292 290 290 289 290 291 291 291 291 291 290 290 290 290 291 292 293 296 299 299 302 306 310 314 318 321 325 326
288 284 290 290 289 289 291 291 290 289 289 291 294 293 292 291 290 289 289 292 291 292 292 291 291 290 290 289 290 290 291 292 294 296 298 299 301 304 309 312 318 317 320 321
290 284 285 292 288 287 286 291 292 290 290 289 290 292 290 289 289 292 291 292 292 292 291 291 291 290 289 289 289 289 291 292 296 297 296 298 300 303 306 309 313 320 317 322
293 286 289 292 291 283 284 284 292 288 287 291 292 293 294 293 292 291 292 292 292 291 291 291 292 289 290 291 290 289 290 293 294 296 296 296 299 301 304 308 310 315 321 320
288 286 286 289 290 287 291 290 288 291 292 291 294 292 293 293 292 292 292 291 290 291 291 291 292 292 292 292 291 291 291 292 294 294 295 295 296 299 302 305 306 308 311 310
289 287 284 286 290 291 290 291 291 292 291 291 292 292 292 292 292 291 290 290 291 291 291 291 292 291 291 293 293 292 291 292 292 293 293 294 295 294 298 301 300 302 303 304
289 286 281 284 287 287 290 290 291 290 290 291 291 292 291 291 291 291 291 290 290 290 290 291 291 291 292 291 291 291 290 290 291 291 293 293 293 293 293 296 296 295 295 297
289 284 280 285 281 288 296 288 285 290 291 290 291 291 292 291 291 289 290 290 289 290 290 291 293 290 287 286 286 287 288 289 290 291 292 291 291 291 290 293 293 293 292 293
288 287 281 281 274 287 292 288 285 286 291 290 291 291 290 289 288 289 289 289 289 289 290 292 289 287 286 287 287 287 288 289 289 290 290 290 289 289 289 290 290 290 290 290
289 288 286 273 282 288 293 292 287 286 292 290 289 290 289 289 292 293 291 289 288 288 291 288 287 287 287 287 288 288 289 288 288 288 288 288 288 288 288 288 289 288 288 288
289 291 291 279 281 285 288 291 288 291 297 289 289 290 290 289 289 290 289 288 287 289 289 288 287 287 287 288 288 288 286 285 286 286 286 287 287 287 287 287 287 287 287 287
287 287 288 282 281 289 287 288 291 293 291 290 287 287 289 288 288 288 287 286 286 291 289 287 287 287 286 286 286 284 284 284 285 285 285 285 285 286 286 286 286 286 286 285
289 289 287 287 289 289 287 290 289 288 289 289 289 288 288 288 288 287 286 286 283 290 288 288 287 286 285 285 284 283 283 284 284 284 284 284 284 284 284 285 285 285 285 285
285 286 287 287 290 290 289 288 287 287 288 289 287 287 286 287 288 288 287 287 287 289 288 288 287 284 284 285 284 284 285 285 285 285 286 286 285 285 285 285 285 284 284 284
288 287 286 286 290 290 291 291 290 290 289 288 286 286 287 287 288 287 287 286 288 289 287 287 287 286 286 286 286 286 286 287 286 285 286 286 286 285 285 285 285 285 285 285
286 288 290 297 294 293 296 291 290 289 289 287 287 288 287 287 287 287 286 287 288 290 290 289 289 289 289 288 288 288 289 290 289 288 287 287 287 287 286 285 285 285 286 287
Wind_Speed
6 9 5 5 2 4 3 3 4 4 3 13 7 18 21 15 9 12 13 12 14 17 23 31 31 19 33 34 19 24 26 33 32 30 29 30 35 34 34 40 44 44 42 39
6 4 5 6 2 2 1 1 3 9 2 7 7 20 14 7 6 6 10 9 11 15 18 25 31 23 15 32 42 26 20 23 26 31 29 30 28 29 30 33 40 45 44 43
6 2 6 2 2 6 2 3 5 5 12 5 10 7 6 6 4 8 9 7 10 8 12 15 23 25 26 28 36 34 27 16 18 23 33 31 27 25 24 30 39 44 44 43
2 3 4 3 3 4 4 3 6 9 7 3 7 5 6 6 10 5 10 11 11 8 10 11 15 19 20 20 27 34 32 26 20 16 20 28 26 23 29 30 27 28 40 44
2 3 4 3 3 3 6 8 6 2 2 3 4 1 9 4 5 8 12 14 12 8 8 13 15 16 19 20 22 27 28 30 29 25 20 25 27 27 27 28 29 32 34 41
1 2 1 3 3 2 10 3 1 3 2 3 3 2 6 4 5 6 8 14 10 9 12 16 26 26 19 19 20 20 23 29 27 28 30 23 31 29 24 24 27 31 33 36
6 1 3 2 4 2 6 5 4 7 6 4 5 5 11 10 11 6 7 12 10 9 11 11 15 24 29 23 23 21 19 26 26 29 26 27 26 29 30 27 28 28 30 32
4 6 2 4 2 2 4 2 4 4 3 6 6 7 7 6 10 8 6 7 8 12 11 13 16 22 26 26 22 24 23 25 22 24 30 26 24 30 29 31 29 30 32 36
3 5 2 1 2 2 2 4 2 3 2 2 4 6 11 8 8 6 8 6 9 13 15 14 19 23 27 27 27 22 25 28 25 17 22 24 20 22 31 31 30 33 32 33
4 4 1 1 1 3 1 5 2 3 2 5 6 7 7 9 10 10 10 11 13 14 15 15 17 23 27 29 30 28 22 26 28 23 17 20 22 15 25 34 18 31 35 34
4 3 3 3 2 6 1 1 5 3 3 3 4 7 9 14 12 9 12 14 15 16 17 17 19 25 27 29 31 28 26 24 27 25 19 19 19 17 21 23 26 17 30 28
5 4 4 7 2 2 2 5 5 4 4 4 2 11 5 8 6 5 11 19 18 17 17 16 20 24 24 26 27 26 27 27 24 25 21 19 17 17 15 20 20 21 23 19
7 1 4 6 4 4 3 4 4 3 2 8 4 8 3 3 6 16 20 18 19 19 21 18 15 14 17 22 26 26 28 29 22 21 26 22 17 16 13 14 17 27 22 22
8 3 6 6 6 4 4 4 9 6 4 4 16 24 30 25 18 16 21 22 20 20 19 17 15 7 15 23 27 27 28 28 22 17 21 25 20 17 15 11 13 13 23 28
5 6 5 10 13 7 21 15 11 19 22 9 17 13 27 25 21 21 20 21 19 21 20 18 14 11 21 24 25 24 26 29 21 16 16 18 21 15 10 7 5 4 11 17
3 3 2 5 11 11 20 22 18 25 23 23 29 32 33 30 23 18 18 17 20 19 20 19 17 16 21 23 23 22 26 27 17 15 15 15 14 14 6 1 1 5 10 13
6 3 2 6 2 7 12 10 12 7 7 9 12 17 12 12 12 12 15 19 18 17 20 18 17 16 21 24 26 21 25 20 13 13 14 14 12 10 3 6 7 12 19 22
6 5 2 4 5 1 6 1 5 8 7 17 11 15 17 15 14 14 16 14 13 18 18 16 14 20 22 24 24 20 11 9 11 13 13 10 10 5 2 11 14 18 24 31
3 4 1 2 2 10 9 3 6 7 8 14 21 16 12 12 9 10 6 4 12 15 16 15 19 19 22 20 18 12 10 10 11 11 9 7 6 2 2 12 19 23 27 30
5 3 4 2 2 6 5 3 4 3 5 6 11 10 7 3 6 8 9 13 15 20 16 17 18 19 18 19 15 13 11 9 8 9 7 3 1 2 8 11 21 23 25 29
5 4 13 4 4 10 14 5 3 5 6 5 7 6 4 4 6 10 15 12 15 18 18 19 18 15 17 17 13 8 8 9 7 4 4 5 5 9 13 17 19 28 26 29
9 10 6 4 4 11 9 5 9 5 1 4 4 5 5 7 9 9 10 8 10 12 16 19 15 15 16 12 6 5 7 6 7 11 13 14 14 15 18 23 22 27 28 26
4 9 7 14 10 3 12 6 10 0 3 5 5 7 7 9 6 8 7 7 6 12 14 15 14 15 14 11 7 8 7 8 13 17 20 20 20 19 19 21 21 23 22 21
5 5 4 2 10 21 20 17 14 8 13 14 8 9 6 9 7 7 6 7 4 9 11 12 14 13 12 11 9 8 9 13 18 23 23 22 21 20 20 22 22 21 18 17
6 12 6 8 17 13 25 19 17 17 14 12 9 8 10 7 8 6 5 7 7 4 6 6 8 6 7 6 7 9 12 15 20 21 23 23 21 19 18 18 17 22 18 15
7 8 7 11 10 7 10 5 6 8 8 11 9 6 8 8 9 6 7 10 8 3 3 2 0 1 1 2 6 10 11 12 15 16 16 17 18 16 15 15 16 12 10 8
Wind_Direction
19 55 19 306 21 169 183 198 272 260 298 340 306 301 301 310 319 323 316 323 353 356 342 351 342 340 1 351 310 246 225 220 219 220 214 217 218 219 218 219 224 226 229 225
43 44 284 266 288 182 168 274 296 295 270 344 331 301 295 304 298 276 306 316 346 359 356 357 3 2 335 353 351 318 259 246 229 227 223 219 225 225 220 219 222 230 230 229
91 281 311 277 336 28 54 69 340 287 324 6 330 297 314 301 317 320 329 317 330 355 349 350 0 14 18 0 348 340 338 296 265 249 237 233 227 218 217 219 223 224 227 227
90 323 312 328 48 22 3 158 305 304 9 314 18 293 303 290 314 315 319 322 320 329 341 339 353 356 9 11 351 351 335 333 317 320 253 225 218 206 216 223 227 222 224 226
254 339 328 347 352 357 261 305 289 256 115 36 355 302 271 294 308 317 324 316 313 320 328 330 328 333 333 346 5 344 341 339 328 318 311 310 226 225 222 213 210 216 224 228
305 314 274 300 325 292 273 330 94 86 125 36 186 106 276 271 246 292 314 312 305 318 327 332 330 331 330 331 330 338 334 333 329 323 304 306 317 230 223 212 206 207 212 221
337 287 311 319 311 297 354 9 352 2 8 249 173 328 252 276 278 232 292 296 297 300 310 315 320 321 323 327 326 318 321 322 323 320 317 304 286 300 226 217 209 206 205 209
62 329 29 354 20 284 356 51 127 217 284 287 310 224 254 236 282 281 268 273 281 295 300 299 304 306 309 313 316 315 310 307 313 318 317 314 301 297 299 220 215 210 209 213
79 285 321 360 326 12 326 48 194 118 99 321 259 278 284 287 285 280 291 296 291 304 308 299 303 300 302 308 309 310 306 303 301 308 306 309 308 288 292 283 224 213 214 216
217 331 168 294 280 20 23 167 63 26 11 299 281 286 246 284 283 302 307 305 304 303 302 302 300 299 299 301 305 310 310 303 301 302 299 302 301 287 283 276 269 220 219 218
136 104 270 48 187 174 141 342 45 115 150 211 294 253 209 247 264 283 302 299 298 300 298 301 302 298 295 298 306 309 317 321 304 301 300 302 303 297 280 278 269 259 224 218
199 143 260 236 222 320 290 203 165 130 247 234 260 267 227 229 259 278 280 303 301 299 300 300 297 297 293 296 305 306 313 324 314 304 301 304 308 305 291 289 268 251 250 255
184 270 336 339 0 357 215 197 199 101 120 206 165 260 312 301 289 301 303 303 305 304 307 305 300 284 291 303 305 306 313 318 320 308 310 310 312 310 296 299 285 253 248 246
153 170 197 207 220 132 264 204 201 161 182 199 228 281 286 290 299 299 302 304 307 308 307 312 313 287 298 299 298 301 309 317 312 307 314 314 317 317 324 320 295 270 231 237
141 212 187 256 277 247 267 254 205 215 227 223 262 265 275 287 300 295 294 297 302 309 310 317 319 309 306 302 299 301 306 316 311 306 315 317 316 312 315 324 304 186 185 184
168 257 129 263 260 277 275 263 240 239 242 253 259 271 271 279 281 284 284 296 309 308 312 315 317 313 314 306 299 301 306 318 310 310 319 320 318 310 313 304 75 122 133 146
153 158 42 266 5 312 284 252 206 190 216 217 222 245 276 287 288 287 297 303 304 303 315 316 315 311 319 323 319 303 309 313 314 320 322 324 321 317 301 112 123 119 119 124
141 118 101 277 357 12 253 151 172 203 237 207 246 266 275 278 285 291 288 289 293 313 314 316 313 323 322 322 325 319 321 325 321 316 317 321 318 331 298 116 125 125 122 119
142 120 1 240 203 298 290 165 151 177 277 211 222 249 263 279 304 289 255 230 305 307 309 315 319 314 322 333 340 345 350 343 324 317 312 318 321 315 118 123 123 122 123 118
161 92 145 79 178 241 227 180 173 145 292 190 181 216 247 323 336 305 324 321 312 310 313 320 319 321 324 335 333 331 344 350 344 332 319 325 323 161 120 115 121 117 114 110
145 174 215 204 256 274 251 206 196 85 253 182 188 212 212 196 213 276 304 305 302 308 324 325 333 331 335 330 326 344 4 18 8 21 43 73 108 112 117 115 112 115 110 110
166 162 189 153 201 281 144 85 183 210 141 157 212 224 245 244 265 271 286 287 310 314 324 340 339 350 353 358 1 29 43 56 82 87 84 86 99 108 113 115 109 111 112 109
222 193 181 191 209 230 195 220 221 109 219 226 225 243 250 269 261 294 289 301 303 318 325 346 359 5 6 15 32 54 62 95 101 96 86 86 89 92 96 99 102 98 105 105
247 176 219 109 236 243 247 250 258 239 244 261 242 259 247 254 264 275 291 293 290 327 324 349 14 31 22 18 43 68 88 98 98 96 95 93 92 93 101 105 101 95 92 98
193 151 185 265 269 271 272 254 247 247 247 248 246 227 235 234 263 247 271 297 295 320 326 5 29 45 35 47 67 86 96 100 93 95 98 97 97 96 99 104 119 122 120 132
186 175 188 244 199 203 262 209 195 207 224 220 228 243 234 219 247 248 261 266 272 242 276 270 58 152 148 133 124 121 116 109 102 100 103 108 113 115 117 119 110 100 112 131